Theta_e
310 310 310 311 311 312 313 313 314 315 315 316 316 317 318 316 313 311 308 308 309 312 311 310 310 308 309 308 308 308 307 312 319 320 321 320 318 318 316 315 316 316 317 319 319 319 320 320 320 320 320 321 321 322 323 322 322 322 324 321 316 318 319 319 322 320 320 322 323 326 327 327 327 329 329 327 327 329 332 335 336 336 338 339 342 349 351 348
310 309 310 311 311 313 313 313 313 314 315 316 316 317 318 316 314 311 309 308 308 310 311 310 309 308 308 308 309 308 309 318 322 322 322 320 317 317 316 316 316 316 317 319 321 320 320 320 319 320 320 321 321 321 322 322 321 321 324 321 318 321 321 321 322 320 321 322 322 324 326 328 327 327 328 326 327 329 331 334 333 334 337 338 344 351 350 348
310 309 310 311 312 313 313 313 313 314 315 316 316 317 317 315 314 311 309 308 308 309 310 309 308 309 308 309 310 309 315 322 323 321 322 320 317 317 317 317 317 316 317 319 321 321 321 320 320 320 320 321 321 321 321 321 321 322 322 321 321 322 322 322 322 321 320 320 322 322 325 327 327 328 327 325 326 328 329 331 331 332 335 337 345 351 349 348
310 309 310 311 312 313 314 313 314 314 316 316 315 317 316 314 313 310 309 308 308 310 310 309 309 309 308 310 310 312 320 325 321 323 323 322 320 317 317 318 318 317 318 319 320 321 321 321 320 320 320 321 321 321 321 321 321 321 321 321 322 321 322 322 322 321 320 321 321 321 326 327 327 328 326 326 327 327 327 328 330 330 334 339 345 348 349 348
310 310 309 310 311 313 314 313 313 313 316 316 315 315 315 313 312 310 309 308 308 310 311 310 310 309 309 311 310 316 324 321 320 327 324 325 324 319 317 318 318 318 320 320 320 321 320 321 320 320 320 321 322 322 321 321 321 320 322 322 322 322 321 322 322 321 320 321 321 322 326 327 328 329 327 326 327 328 326 327 329 330 335 341 345 347 348 347
309 310 308 309 311 313 314 312 312 312 314 316 314 314 314 312 311 310 309 308 309 310 310 310 310 310 310 311 312 320 324 319 323 328 324 325 324 320 318 317 318 320 321 320 321 321 321 321 320 320 321 321 321 321 321 321 321 320 322 322 322 322 321 322 322 320 320 321 322 323 326 327 328 328 327 327 328 329 328 327 328 332 337 342 346 346 346 345
309 309 308 309 311 312 314 313 312 312 313 314 314 313 313 312 311 310 309 309 309 309 309 309 310 311 310 312 317 322 324 322 326 324 322 323 323 321 318 318 319 319 320 320 321 321 320 320 319 321 321 321 321 322 321 321 321 320 322 322 322 321 321 322 322 321 320 321 324 325 327 328 327 328 328 328 327 331 330 327 330 336 341 343 345 345 345 345
308 308 308 309 311 312 314 313 312 312 312 313 313 313 313 313 312 311 310 309 309 309 309 309 311 311 312 318 323 323 322 324 325 323 323 324 322 319 318 319 320 319 320 320 321 320 319 320 320 320 321 322 321 321 321 321 321 321 321 321 321 322 322 322 322 323 322 322 325 326 327 326 327 328 330 329 327 331 332 330 334 338 340 342 344 345 345 345
308 308 308 309 311 312 314 314 312 312 312 312 313 313 313 312 313 312 311 311 310 310 310 309 311 310 313 322 324 321 324 324 324 325 325 325 321 317 319 321 320 319 320 320 321 320 319 319 320 320 321 322 321 321 321 320 321 321 321 321 321 321 322 322 322 323 323 323 325 326 326 327 328 329 330 328 327 332 334 334 337 338 338 341 345 346 346 345
308 308 308 309 311 312 315 314 312 312 312 312 312 312 313 312 313 313 312 312 311 311 310 310 311 311 316 323 323 322 326 323 322 325 326 323 318 318 321 321 320 320 320 321 321 320 319 319 320 320 320 321 321 321 321 320 320 320 320 321 321 322 322 323 323 324 323 324 326 325 326 328 330 328 327 327 329 333 335 335 337 336 337 342 345 347 348 347
308 308 309 309 311 312 315 314 312 312 312 312 311 311 312 312 312 312 313 313 312 312 311 310 310 313 321 324 323 324 324 324 323 323 325 321 319 321 323 321 320 320 320 321 321 321 320 320 321 320 321 321 320 321 320 320 320 320 320 320 321 322 322 323 324 325 324 325 325 325 328 330 330 328 327 329 333 335 335 337 336 335 336 340 345 346 348 349
308 309 309 309 311 312 315 315 312 312 312 312 312 311 311 311 312 312 312 312 313 312 311 311 310 316 325 323 321 324 322 324 324 322 324 322 320 322 322 321 321 321 321 321 320 321 320 320 321 320 320 320 321 321 320 320 320 320 320 320 322 322 323 323 325 325 325 326 326 326 325 326 329 327 326 331 334 335 338 340 337 335 335 338 344 345 347 350
309 310 310 310 311 312 315 315 312 312 313 313 312 312 311 311 311 311 311 312 312 312 311 311 312 318 325 323 322 323 321 323 322 322 324 322 321 320 321 322 322 321 321 321 321 321 319 320 321 320 320 320 320 320 319 320 319 321 321 320 321 320 322 324 325 325 326 326 327 325 318 320 329 327 326 332 333 336 339 340 338 336 336 337 342 343 345 349
309 310 311 311 311 313 315 314 313 314 314 313 313 312 311 310 310 310 311 311 311 312 311 310 314 321 325 323 323 321 320 322 321 324 324 321 321 320 321 321 321 321 322 321 319 318 319 320 320 319 319 320 320 320 319 320 320 321 321 320 321 316 317 325 325 325 327 325 328 326 316 319 328 325 329 334 333 334 335 337 338 337 338 338 341 341 342 346
309 311 311 311 311 313 315 315 314 315 314 313 313 313 312 311 310 310 310 310 311 311 310 312 317 324 325 322 324 322 321 323 323 326 324 322 322 322 322 321 321 322 321 320 317 317 319 319 319 318 319 319 319 320 320 321 321 322 317 314 319 315 317 326 324 323 326 325 329 326 317 321 328 326 330 334 333 334 332 334 338 338 339 339 341 341 339 344
309 311 312 312 312 313 315 315 314 315 314 313 313 313 312 311 310 310 310 311 311 310 313 318 320 323 324 323 326 325 325 325 325 326 323 323 323 323 322 321 322 321 319 318 316 317 318 318 318 318 319 319 319 320 320 318 317 322 317 311 315 315 317 322 324 325 324 325 328 326 321 323 327 327 328 331 332 334 331 332 337 340 340 340 342 342 339 341
308 311 313 313 312 312 315 315 314 315 315 312 313 313 312 311 309 310 310 310 311 312 318 324 321 321 324 325 324 324 326 327 325 325 324 323 322 322 321 321 321 319 318 316 316 317 317 317 318 317 319 319 320 320 316 311 311 316 318 314 316 318 317 318 321 325 324 324 326 327 326 325 326 328 328 329 330 331 331 330 333 338 341 341 343 343 341 342
307 311 313 314 314 312 314 316 315 315 314 313 313 313 312 310 310 312 313 314 316 317 321 323 322 323 323 323 324 324 327 326 324 325 323 322 321 320 319 318 318 317 317 316 317 317 317 318 317 318 319 318 321 320 313 311 312 314 315 314 315 318 318 318 320 324 324 324 325 326 326 326 326 326 327 329 329 329 330 330 330 334 341 344 345 344 343 342
306 311 314 315 315 313 313 315 316 315 313 313 313 312 312 312 314 318 319 320 322 323 324 323 323 324 321 322 325 324 325 324 323 325 323 321 319 319 318 318 317 317 317 316 317 317 317 318 317 317 318 318 320 320 316 316 317 317 317 316 315 315 317 321 324 324 324 324 324 325 324 325 326 326 326 327 330 330 329 331 331 333 339 345 346 345 346 345
306 310 315 316 316 314 313 315 317 315 313 313 314 316 320 322 323 325 322 320 322 323 323 323 323 322 321 323 324 325 324 323 324 325 323 320 318 319 319 319 319 318 318 317 317 318 318 318 317 316 318 320 320 319 320 320 320 321 320 318 317 316 317 323 325 324 324 323 323 325 324 325 326 325 326 326 328 332 331 334 334 335 337 342 345 345 346 348
305 309 315 316 316 316 313 315 317 314 313 315 319 325 326 325 325 325 323 322 322 323 323 322 323 322 323 324 324 325 324 324 325 325 323 321 319 320 320 319 320 319 319 319 318 319 318 316 317 319 320 320 319 319 320 321 321 322 320 318 317 317 319 324 325 322 323 321 321 324 323 324 325 325 327 326 328 331 332 334 335 336 337 340 345 346 347 350
304 308 315 316 316 316 313 315 317 314 313 317 323 328 322 320 320 321 322 323 323 324 323 323 323 323 323 324 325 324 324 325 326 324 324 322 321 321 320 320 320 320 320 319 319 318 316 316 319 321 320 319 319 320 320 321 322 321 320 318 315 318 320 322 323 322 322 321 321 324 322 323 326 326 326 326 328 330 331 332 333 335 337 337 341 344 346 348
304 307 314 316 316 316 314 314 316 314 314 319 325 325 321 321 321 320 321 322 323 324 323 323 323 323 324 325 325 324 323 326 326 325 324 322 323 323 321 321 320 321 320 317 318 316 313 317 321 321 319 319 320 320 321 321 321 322 320 316 314 319 320 316 319 323 322 321 321 323 321 322 326 326 327 328 329 330 331 331 332 333 335 336 336 339 341 342
305 305 311 316 315 315 314 314 316 316 316 321 325 323 321 321 322 322 321 321 323 324 324 324 324 324 325 326 326 325 324 326 326 326 325 323 324 323 321 322 321 321 320 319 319 317 316 319 321 320 319 320 321 321 322 320 319 321 322 318 316 320 320 318 321 323 322 321 323 321 316 317 324 325 327 330 330 331 332 333 334 334 334 334 334 336 337 338
305 304 308 315 315 314 313 314 318 320 320 322 323 322 321 321 322 322 322 323 323 324 324 325 325 325 325 326 325 325 325 325 326 326 325 326 325 323 322 322 321 321 321 319 319 318 319 320 320 320 320 321 321 322 323 321 317 317 322 323 321 322 322 322 323 321 316 315 320 319 311 312 321 324 327 331 331 331 332 333 335 336 336 335 335 335 335 335
304 304 306 311 315 314 314 319 322 321 322 323 322 320 319 320 322 321 324 324 320 322 324 324 325 325 325 326 325 326 325 325 326 326 326 326 325 324 322 322 322 321 321 321 319 319 320 320 319 320 320 321 322 321 322 323 317 314 320 324 323 324 323 322 322 317 311 312 320 320 312 310 317 322 328 331 329 329 330 331 333 335 337 337 337 337 336 336
303 305 305 308 313 315 318 322 321 320 322 321 320 318 318 321 321 322 326 320 316 321 324 322 324 324 325 326 326 325 324 324 325 325 325 325 325 323 322 322 322 320 321 321 317 318 321 320 319 320 321 321 321 321 322 323 317 314 320 323 323 323 322 322 321 315 314 315 318 320 317 311 311 319 330 329 327 329 328 328 330 331 335 336 337 338 339 340
303 305 305 305 309 314 318 319 320 322 320 318 318 317 318 321 322 327 326 314 314 323 324 322 322 323 324 325 326 325 323 324 325 325 324 325 324 322 323 323 322 320 321 319 314 318 322 321 320 321 321 321 321 322 323 323 320 319 321 322 322 323 322 323 320 315 316 315 311 314 316 311 310 319 328 328 326 326 326 325 326 327 330 333 335 337 339 340
303 304 305 305 308 314 316 315 319 320 316 315 315 315 319 324 326 330 323 313 317 323 321 322 321 321 324 324 326 326 323 323 323 323 322 323 322 322 322 323 322 321 320 320 318 321 323 321 321 322 322 322 322 323 323 322 322 321 321 321 322 323 322 323 320 315 314 313 310 311 314 311 310 316 322 325 324 324 325 323 322 325 327 328 331 333 335 338
303 304 305 305 310 317 316 315 317 316 314 313 313 316 323 328 327 322 315 315 322 322 319 321 321 321 324 325 326 326 325 323 322 322 322 323 322 320 321 322 322 322 321 321 321 322 322 320 321 322 322 323 322 321 321 321 322 320 321 321 321 321 322 322 320 315 312 312 311 311 314 312 311 315 319 321 322 322 323 322 321 323 324 326 327 328 330 333
303 304 305 304 310 317 319 319 317 314 313 311 314 322 327 329 326 316 313 317 321 320 319 321 321 321 323 325 327 326 326 324 322 322 323 323 323 322 322 321 321 322 321 320 321 322 323 321 321 321 321 321 321 320 320 320 320 320 322 320 317 317 318 316 315 315 313 311 311 313 315 312 310 315 319 320 321 321 321 321 321 322 324 325 325 325 327 328
304 305 305 304 307 312 317 318 316 313 311 313 320 327 325 323 320 314 315 318 318 320 321 321 321 321 322 324 326 325 326 325 323 323 324 323 324 324 323 323 323 319 316 316 319 320 322 322 322 321 320 320 321 320 319 319 319 321 320 317 313 313 314 313 313 313 312 311 312 315 315 312 313 317 319 319 318 319 320 321 321 323 325 325 323 324 325 325
304 304 305 306 307 311 315 316 314 311 311 318 325 326 321 318 316 314 315 316 318 321 321 320 321 321 321 321 323 323 324 324 323 323 324 324 324 324 323 324 324 321 317 318 316 315 317 321 322 321 320 320 321 319 316 317 320 320 317 313 312 313 314 315 313 312 312 311 313 315 314 312 315 319 319 319 317 318 320 322 323 324 324 324 322 322 323 324
304 305 305 307 309 312 315 314 312 311 315 323 326 323 322 318 316 316 317 317 320 320 319 320 321 320 321 322 322 323 322 322 323 322 323 324 324 324 324 323 323 323 322 320 316 314 313 316 319 320 320 320 321 320 318 320 320 321 321 318 314 312 313 314 313 312 312 312 313 314 313 313 315 318 319 318 317 319 321 322 323 323 323 323 322 322 323 323
304 305 305 308 312 314 314 312 311 312 318 324 323 321 320 316 314 316 317 318 320 320 319 320 321 320 320 322 323 322 322 321 322 322 323 323 323 324 325 323 323 324 323 318 317 317 313 314 320 321 320 321 322 321 321 322 320 321 323 318 314 315 315 314 315 317 315 313 313 312 313 316 319 319 319 318 318 319 321 322 323 322 323 323 323 323 324 324
304 305 308 315 319 316 312 311 310 312 318 321 319 319 319 316 315 318 319 319 319 320 320 319 321 319 317 320 323 321 322 322 322 322 323 323 324 323 323 323 322 323 323 320 320 319 313 315 321 321 320 322 321 321 322 320 318 320 318 315 316 321 320 314 315 318 316 314 313 313 315 318 319 319 319 319 319 320 320 321 322 323 324 324 324 324 324 324
304 307 313 319 320 314 311 310 310 314 319 319 317 318 320 318 319 319 318 317 315 319 320 317 318 319 316 317 320 321 323 322 321 322 320 321 322 322 321 321 320 321 322 321 322 322 317 316 321 322 321 321 320 321 322 320 320 320 315 316 320 321 321 317 314 314 314 313 314 314 315 316 315 317 320 321 321 320 320 320 321 322 323 323 324 324 324 324
308 311 313 316 315 312 310 309 313 317 318 317 316 318 320 320 319 317 316 315 314 317 320 317 319 320 318 317 318 322 322 319 320 321 320 320 320 320 321 321 319 319 321 320 321 324 321 315 318 322 322 321 321 320 320 320 322 320 318 320 320 316 315 316 314 314 314 314 314 314 313 313 313 317 321 322 322 321 320 320 320 322 322 322 323 323 323 324
312 314 313 313 312 309 308 311 317 318 316 316 316 316 318 319 317 315 314 313 314 316 318 319 320 322 322 319 320 323 322 319 321 322 320 321 320 319 320 320 319 319 319 320 322 324 323 318 316 321 322 321 321 320 317 318 320 321 321 321 321 317 315 315 315 315 314 314 315 314 313 313 316 321 323 322 323 322 321 320 320 321 322 322 322 322 323 323
315 311 311 312 309 308 310 315 319 316 314 315 315 314 316 317 316 314 312 312 314 315 318 320 322 323 323 322 321 323 323 322 323 322 321 321 320 319 319 319 320 319 318 320 322 323 325 321 315 319 322 319 319 320 319 320 321 319 318 318 318 319 318 318 317 315 313 314 314 314 314 314 319 323 323 321 321 321 320 321 320 321 321 321 322 323 322 322
313 309 311 311 307 309 314 316 317 314 313 315 315 315 316 315 315 313 311 311 312 313 314 318 321 323 323 322 321 322 324 324 323 323 322 321 320 319 318 318 319 319 319 320 322 323 324 322 316 316 319 316 317 320 320 321 322 321 320 318 318 319 317 315 315 314 314 313 313 314 315 315 319 321 320 319 319 318 319 320 320 320 321 321 322 323 322 322
313 309 312 311 306 311 316 315 314 316 316 314 315 315 314 314 313 312 311 310 311 312 313 316 320 322 324 323 321 322 324 323 323 322 322 321 321 320 317 317 318 319 320 322 322 322 325 325 318 315 317 317 318 319 318 319 320 320 321 321 321 321 317 314 314 315 315 314 314 314 314 317 320 319 319 318 317 318 318 319 320 320 320 320 320 321 321 321
312 308 312 312 307 311 315 312 313 317 315 313 315 314 312 313 313 312 312 310 310 312 313 315 318 320 321 321 320 322 324 322 321 322 322 321 320 318 316 317 317 318 320 321 321 323 326 326 318 315 317 318 318 318 318 318 319 319 319 319 320 320 318 317 318 319 317 315 315 315 315 319 320 319 318 318 318 318 318 319 320 319 319 319 319 319 319 319
309 309 312 312 309 311 312 310 311 313 313 313 314 313 311 312 312 312 312 311 311 313 314 315 316 317 318 318 320 322 323 321 319 320 322 321 318 316 316 317 318 319 321 323 322 321 322 322 317 315 316 318 318 319 318 317 318 319 318 317 317 318 318 319 320 320 318 315 315 316 315 319 321 319 318 318 319 320 319 319 320 320 319 318 318 318 318 317
310 311 313 313 312 312 311 311 311 312 312 314 314 313 312 311 311 311 312 313 312 313 316 316 315 315 316 316 319 321 320 321 321 320 320 320 317 315 315 316 318 318 321 323 323 319 320 322 319 315 315 318 318 318 317 317 319 319 317 315 315 315 317 317 317 317 317 317 318 316 316 319 322 320 319 320 320 321 321 319 318 319 318 318 318 318 317 317
310 310 310 313 313 312 311 312 313 312 313 315 314 313 313 312 311 310 311 313 313 313 316 315 314 315 316 316 320 320 318 319 322 321 320 320 317 315 314 316 317 319 321 321 319 319 321 322 321 318 316 315 314 314 316 318 319 318 316 315 314 313 315 315 314 314 315 316 317 316 317 320 322 321 320 320 320 321 321 320 318 318 318 318 317 316 316 316
309 308 310 313 312 311 311 311 312 312 313 315 314 314 314 314 313 311 311 313 313 313 316 316 315 316 315 317 321 322 319 318 320 322 321 319 317 314 313 314 315 317 321 319 315 318 319 316 318 320 316 313 312 313 314 315 316 316 315 315 314 313 313 314 313 314 315 313 312 315 317 316 318 321 322 320 319 320 321 320 319 318 317 316 316 315 314 314
308 310 312 312 310 311 312 311 311 312 312 314 315 315 314 313 313 313 312 313 313 314 315 315 315 315 316 317 320 321 320 319 320 323 321 318 317 315 313 314 312 314 317 314 313 319 317 312 315 317 313 312 311 312 312 311 312 313 312 313 314 313 313 313 313 313 314 312 311 314 315 314 316 320 320 319 318 319 320 320 318 317 316 315 315 314 313 312
307 309 310 310 309 311 313 311 311 312 312 314 315 315 315 313 314 315 313 314 314 314 315 316 315 314 315 316 318 321 321 320 322 324 323 319 319 317 316 315 312 312 313 311 313 318 317 313 315 314 312 312 310 310 310 310 309 310 309 309 310 311 311 312 311 311 311 311 310 311 313 312 314 317 318 318 317 318 319 318 316 316 315 314 314 313 311 310
308 309 310 311 309 310 312 311 311 312 312 314 314 314 315 315 314 314 313 315 317 315 314 316 316 315 315 315 317 321 321 321 324 325 323 321 320 319 318 317 314 312 312 312 314 316 315 315 316 313 311 311 311 310 309 308 308 308 308 307 308 308 309 310 310 311 312 311 311 312 311 311 313 315 317 318 318 318 318 317 316 316 314 313 312 311 310 309
305 306 308 309 309 310 312 311 311 311 310 311 312 313 314 314 313 314 312 312 316 316 314 315 317 317 316 315 317 320 319 319 322 323 322 321 321 320 319 318 315 313 313 313 314 315 314 315 316 313 310 311 311 309 308 308 309 308 308 308 307 308 309 309 310 311 312 313 313 313 311 313 316 318 318 318 318 318 318 318 317 315 313 312 311 310 309 309
303 304 306 308 308 310 311 311 310 309 308 310 312 312 313 313 313 314 313 311 312 313 314 317 319 317 317 319 319 317 316 316 318 318 318 318 318 317 317 316 314 314 314 315 315 315 315 314 314 313 311 311 310 309 309 310 310 309 311 311 309 308 309 309 310 312 313 313 312 312 314 318 320 318 318 319 318 318 318 318 316 314 312 311 309 309 308 308
Wind_Speed
14 13 12 12 11 11 11 10 8 7 5 5 7 10 13 14 14 14 13 12 12 10 9 10 10 9 8 7 7 6 5 5 7 9 14 14 13 13 8 9 16 14 11 9 10 11 10 10 8 7 6 5 4 1 3 3 3 4 4 4 4 6 8 8 8 8 6 6 2 3 6 6 5 7 4 5 4 5 9 6 4 4 3 4 7 16 22 21
14 13 12 12 11 10 10 9 7 6 4 4 6 10 12 14 14 14 13 12 12 10 8 9 9 9 8 7 6 5 4 6 10 14 18 19 14 15 13 10 13 13 11 11 13 11 10 8 8 8 6 4 2 2 3 3 4 4 4 4 5 7 8 7 7 7 7 7 5 3 7 6 5 8 7 7 6 7 9 8 7 7 6 6 10 17 20 19
14 13 12 11 11 10 9 8 7 4 2 2 5 10 12 13 13 13 12 11 12 10 8 8 9 8 8 7 5 4 3 7 12 11 10 12 14 17 17 15 13 11 11 12 13 11 8 5 7 7 6 4 1 1 3 3 3 2 4 4 6 8 8 6 7 7 7 8 8 6 7 7 4 7 7 7 6 8 9 7 9 9 10 11 14 18 19 18
14 13 11 11 11 10 9 8 7 4 2 1 5 10 11 13 13 13 12 11 11 10 8 8 9 8 8 6 5 3 4 8 7 2 3 4 9 16 19 18 15 13 11 10 11 10 7 5 6 6 7 5 2 2 4 3 1 3 3 5 7 8 8 8 10 7 6 7 7 5 7 8 6 6 7 8 6 8 9 8 9 9 13 15 16 18 19 18
14 13 11 11 10 10 8 7 6 4 3 3 6 10 11 12 13 13 12 11 11 11 9 9 9 8 8 6 5 3 4 6 3 5 3 3 4 11 18 19 15 14 12 9 9 10 8 7 7 6 7 5 2 3 2 2 2 5 3 5 7 9 8 10 11 6 5 6 5 6 8 8 7 7 8 10 6 3 4 7 8 8 13 16 18 19 18 18
14 13 11 10 10 9 8 6 5 4 4 5 6 9 11 12 12 13 12 12 12 11 11 10 9 8 7 6 5 3 5 3 4 3 3 2 3 8 17 20 16 15 13 11 11 10 10 8 8 7 6 5 5 4 2 1 2 5 3 3 6 9 9 10 11 6 4 5 5 5 6 6 8 8 8 11 7 4 4 4 6 7 12 15 17 17 17 17
15 13 12 10 9 8 7 6 4 3 4 5 6 9 10 11 12 12 13 12 12 12 11 10 9 8 7 6 4 4 8 4 3 1 3 4 4 7 17 21 18 17 15 13 12 10 9 9 9 6 6 6 4 4 3 4 5 6 5 4 7 9 10 11 10 7 5 5 4 4 5 7 10 8 6 11 9 3 5 2 6 9 13 15 16 16 15 16
14 13 12 10 8 8 6 5 3 3 3 5 6 8 9 10 11 12 12 12 13 12 12 11 9 8 7 6 3 5 7 2 3 4 6 4 4 9 19 21 18 18 17 15 13 10 9 9 9 6 7 5 3 3 3 6 7 6 6 7 9 9 10 10 8 6 4 4 3 5 6 7 8 4 4 10 9 4 4 5 9 12 14 15 15 15 15 15
14 13 12 10 8 7 5 4 3 3 3 4 6 8 9 10 10 11 12 12 13 13 12 11 9 9 8 5 6 5 3 3 5 4 2 3 6 15 22 19 18 19 16 14 11 9 8 8 8 6 7 4 3 3 3 6 3 2 8 10 10 11 11 9 7 4 2 3 3 6 7 6 4 2 6 11 9 7 6 7 10 12 14 14 14 15 14 14
14 13 11 10 8 6 5 3 3 3 3 4 6 8 9 10 10 11 12 12 13 13 13 11 10 10 7 5 7 4 5 6 7 7 2 6 12 21 20 17 20 18 15 13 11 10 8 7 5 4 7 4 4 4 3 5 4 6 10 11 11 12 9 7 5 2 1 2 4 6 5 5 4 4 7 7 7 9 9 9 11 12 14 14 14 14 13 13
14 12 11 9 7 5 4 3 3 3 4 4 5 7 9 10 10 12 12 12 13 13 13 12 11 10 6 6 8 2 6 5 7 10 3 11 17 19 15 16 20 16 13 12 11 11 8 5 3 4 4 3 5 5 4 4 5 7 10 10 10 9 5 4 4 3 1 2 2 5 3 4 5 8 9 4 8 10 10 10 12 12 13 14 14 13 12 11
14 13 11 9 7 5 4 3 3 3 4 4 4 6 8 9 10 11 12 13 13 13 13 12 13 9 4 7 8 3 3 3 4 8 4 14 14 12 11 15 16 12 11 10 10 9 6 4 7 7 2 2 4 4 3 1 5 7 8 9 9 7 3 2 4 3 2 1 2 4 4 7 8 11 10 7 9 8 9 10 11 11 12 14 14 13 11 12
15 13 11 9 7 5 4 3 3 3 3 4 4 5 7 8 9 10 11 12 12 12 12 12 12 6 4 5 4 4 5 5 5 4 6 12 10 8 10 11 10 8 6 6 6 7 7 5 6 7 2 4 4 1 1 3 6 7 6 6 8 6 5 4 5 2 1 2 3 5 4 4 8 10 8 8 9 9 9 9 10 10 10 12 13 12 12 12
16 13 11 9 6 4 4 3 3 3 3 4 4 5 6 6 8 9 10 11 11 11 11 12 11 5 5 5 1 5 8 5 5 5 9 12 9 7 9 10 7 5 4 3 3 4 8 6 4 4 2 5 3 2 5 7 6 6 6 5 5 5 4 7 4 2 1 3 3 6 4 0 2 4 7 9 9 10 9 9 10 10 10 11 12 13 12 13
17 14 11 9 5 3 4 4 3 3 3 3 5 5 5 6 7 8 9 10 10 11 10 10 8 4 5 6 3 4 6 4 7 9 11 13 11 8 10 10 7 6 4 3 3 4 7 8 5 5 4 4 4 5 7 6 6 5 6 5 3 3 3 6 3 3 2 2 4 6 4 2 1 2 4 6 8 10 10 9 10 10 11 11 11 12 12 12
19 15 11 8 5 2 3 4 4 3 3 4 5 5 6 7 7 8 9 10 10 12 10 6 7 5 5 2 3 3 4 5 7 9 12 13 10 8 12 11 8 7 5 4 4 5 8 9 5 4 4 4 6 7 6 6 6 5 6 4 1 3 1 4 4 1 2 1 5 7 4 3 1 3 3 4 7 9 9 9 10 10 11 11 10 11 11 11
22 17 12 8 4 1 2 4 5 4 3 5 6 7 9 8 9 10 11 12 11 11 6 2 4 6 6 1 2 4 5 5 5 8 12 10 7 10 14 11 8 9 8 7 6 7 8 8 4 3 5 6 5 5 5 7 6 5 5 4 2 3 3 2 5 4 2 2 4 7 6 6 2 2 4 5 6 7 9 10 10 10 10 10 10 10 11 11
25 19 13 8 4 1 3 5 5 5 6 8 10 11 12 12 13 12 12 13 10 7 3 3 4 5 5 6 4 3 5 5 6 9 11 10 8 12 12 8 9 11 9 8 7 8 7 6 5 5 6 6 5 6 7 4 2 2 2 3 3 4 5 2 2 3 2 4 4 5 6 6 4 1 3 5 5 6 7 9 9 9 9 10 10 10 11 12
27 22 15 8 4 2 4 6 7 7 9 13 16 17 16 14 11 7 7 8 6 4 2 4 8 3 0 7 5 4 5 6 8 9 12 12 11 11 9 9 11 10 8 7 7 8 7 5 6 7 7 8 7 7 6 3 3 2 2 4 4 3 5 2 1 2 2 5 4 4 5 4 3 1 1 2 1 5 5 7 8 8 8 8 8 8 8 9
29 24 17 10 3 3 6 8 9 10 13 17 18 14 9 5 4 5 6 8 10 8 4 4 11 6 1 5 5 4 4 7 6 8 13 13 14 13 9 9 10 8 7 6 7 7 6 6 8 8 7 7 6 4 4 3 2 4 4 5 6 5 4 2 1 2 2 6 3 1 4 3 3 2 6 6 3 4 4 4 4 5 4 4 5 5 5 5
30 26 19 12 4 4 8 10 11 12 16 17 11 4 0 2 2 1 3 9 14 14 12 7 9 10 5 1 3 3 3 6 6 8 13 13 14 12 9 9 8 7 6 5 5 6 5 7 9 8 5 3 3 3 3 3 4 5 6 6 6 7 3 3 2 3 1 5 2 1 4 4 1 5 10 10 8 7 7 6 4 5 3 2 2 2 3 4
31 26 19 13 5 3 8 11 13 14 17 13 5 6 2 5 5 4 3 7 10 14 14 11 10 11 9 7 5 2 3 5 8 10 12 12 13 11 8 9 9 6 7 6 5 5 7 9 9 6 3 3 4 4 4 5 5 5 6 6 5 5 4 4 4 4 2 4 1 1 5 3 4 10 13 11 10 9 9 7 5 5 3 1 1 2 4 6
30 27 19 13 7 2 8 12 14 15 16 10 6 4 2 5 5 4 5 6 6 9 11 12 12 11 11 10 8 7 7 7 8 11 13 13 12 9 8 9 9 5 7 9 8 6 6 5 5 5 5 6 6 5 6 5 5 6 5 6 5 5 4 4 5 4 2 3 2 2 5 3 5 10 12 12 12 11 11 11 9 7 5 3 1 0 3 5
30 27 19 12 8 5 7 11 12 12 13 9 8 4 2 5 6 4 5 6 5 5 6 8 9 10 10 5 8 13 10 7 7 11 16 15 10 8 8 9 9 6 7 10 10 9 5 3 3 5 6 7 7 7 7 6 5 7 6 7 5 4 4 2 4 4 5 4 3 5 6 4 3 8 9 10 11 12 12 13 12 11 8 6 4 3 1 2
29 27 20 10 6 8 8 9 8 7 8 8 9 5 3 7 6 4 5 5 4 4 4 6 5 7 8 5 8 11 9 8 8 10 17 16 11 9 7 6 7 8 9 9 9 9 5 4 4 4 5 7 7 6 7 6 5 6 7 7 5 3 3 3 4 5 6 6 4 3 6 4 5 8 8 7 10 13 13 13 14 13 12 10 9 8 5 3
28 27 21 8 4 9 8 5 4 5 7 7 5 3 4 9 6 4 4 4 4 4 5 6 5 7 10 8 10 9 7 8 5 9 17 15 11 7 6 6 5 6 6 7 6 5 3 4 4 6 6 7 7 6 6 6 7 4 5 4 3 3 4 5 5 6 7 2 4 2 6 3 5 7 8 8 11 13 13 15 15 13 13 12 11 11 9 8
28 26 22 11 2 9 5 0 3 5 5 4 3 3 7 8 3 4 4 4 4 3 5 4 2 7 8 9 13 9 5 7 7 9 14 14 11 6 6 8 6 4 4 5 4 3 5 6 6 7 7 8 7 6 6 7 8 2 5 1 2 4 5 6 6 7 5 1 3 5 5 5 3 5 7 7 10 14 14 15 15 14 14 14 13 13 13 12
29 25 23 17 5 14 9 2 3 5 2 2 4 7 7 4 4 5 4 4 2 2 3 3 3 4 4 7 14 9 2 7 7 8 11 11 10 6 8 9 8 7 8 7 4 4 6 8 8 9 8 8 6 2 3 7 8 2 5 1 2 2 4 6 7 7 3 2 5 7 5 6 4 5 6 6 9 12 13 13 14 14 14 15 14 14 14 13
28 25 23 19 7 13 14 9 7 5 4 7 8 7 4 3 6 4 4 3 3 2 2 3 4 6 6 7 13 10 3 4 3 5 10 10 7 4 5 6 6 7 9 10 6 4 4 2 2 5 6 4 1 1 2 8 6 3 3 1 2 2 4 5 7 6 3 4 8 6 6 6 3 5 4 5 7 9 9 10 11 12 13 14 14 14 14 13
27 25 24 17 5 6 10 13 11 6 7 10 7 3 4 6 5 5 4 2 2 3 3 3 4 7 10 10 11 11 8 3 4 7 9 9 8 5 2 1 5 6 8 10 9 1 4 2 1 3 5 4 3 1 2 6 3 2 2 4 4 5 5 5 5 5 5 6 9 7 6 6 4 3 4 4 5 5 6 7 9 11 13 13 13 13 13 12
26 24 23 17 6 7 7 6 8 7 9 7 3 5 6 5 4 6 4 1 2 4 5 6 6 7 12 13 10 11 11 5 8 10 9 7 9 8 4 4 5 6 7 8 9 7 7 6 3 3 2 3 5 4 3 4 4 4 6 6 6 5 4 5 5 5 7 7 7 5 7 7 6 3 6 7 7 6 6 7 9 11 12 12 12 12 13 12
26 23 21 17 9 13 12 3 1 5 7 3 6 6 6 5 5 6 3 2 2 4 5 5 6 7 11 12 9 10 11 8 8 9 8 9 9 8 8 7 5 7 8 7 8 8 8 6 4 5 3 3 6 6 5 6 6 6 7 6 7 6 5 7 7 6 7 6 2 5 7 6 2 6 8 8 9 7 7 7 8 10 11 11 12 12 12 12
25 24 20 14 9 14 17 8 3 5 2 5 7 5 5 6 6 6 5 4 1 1 2 3 4 7 10 11 8 8 8 7 8 8 8 9 9 7 6 5 4 6 6 5 7 7 5 4 6 8 6 2 5 6 4 5 7 7 7 7 8 7 7 8 8 7 7 5 5 6 6 5 4 7 8 9 9 7 7 7 8 9 10 11 12 12 12 13
25 23 19 14 11 13 15 9 5 3 3 6 6 6 7 8 5 4 6 6 2 2 3 2 4 7 9 9 7 8 6 4 7 9 9 9 8 7 7 6 6 7 5 4 6 7 6 5 6 6 3 2 4 4 4 2 5 5 4 6 7 7 8 8 7 7 7 4 5 6 5 5 5 8 9 9 8 7 7 7 8 9 10 10 11 12 13 14
25 22 18 13 11 13 13 6 5 4 6 6 6 7 8 8 6 5 6 4 3 4 4 3 5 9 9 6 5 6 4 2 8 9 9 9 8 7 6 6 7 8 7 6 4 5 8 4 5 4 2 0 1 2 4 5 5 3 2 6 6 5 6 4 3 4 4 4 4 5 3 2 5 10 10 7 7 8 7 8 9 10 10 10 11 13 13 13
26 22 14 7 6 10 8 7 4 8 7 6 7 8 8 7 6 4 2 1 3 5 6 6 7 9 9 6 6 8 3 2 9 9 6 6 5 5 4 3 4 7 7 6 4 5 7 4 8 5 3 3 2 2 1 4 4 2 4 5 0 3 4 4 1 2 1 6 5 5 4 6 7 8 8 7 7 9 8 9 10 10 11 11 11 12 12 12
27 19 9 6 6 6 7 8 5 9 7 6 8 8 8 8 7 3 1 1 1 3 6 7 6 6 8 7 7 11 8 5 9 9 6 6 3 3 6 4 2 5 5 5 4 3 5 4 8 6 4 5 2 2 2 2 4 4 5 3 4 2 3 4 4 2 4 7 5 6 6 7 7 6 8 9 7 8 8 9 10 10 11 11 11 11 12 13
20 12 7 7 6 5 9 7 8 9 6 7 10 9 8 8 6 5 3 2 2 4 8 8 4 3 7 8 7 10 11 8 10 9 7 7 4 3 6 5 2 2 3 4 4 2 4 5 6 5 3 5 3 4 3 3 2 3 1 4 3 4 5 4 4 4 6 8 6 7 9 8 7 6 11 11 8 8 7 8 9 10 11 10 11 11 13 13
11 7 4 4 2 6 6 8 9 8 7 8 10 9 9 9 7 5 5 5 5 6 9 9 5 3 5 7 6 8 9 9 10 9 6 7 4 3 3 3 3 2 1 5 4 2 4 6 5 6 4 4 5 7 6 5 3 1 2 4 2 4 4 4 5 5 6 8 7 8 8 5 2 7 13 11 8 8 7 7 8 10 10 9 9 10 11 12
6 5 2 5 5 7 4 9 8 7 8 9 9 7 7 9 8 6 6 7 6 5 7 8 7 5 5 5 3 5 6 7 8 8 6 6 5 4 4 2 3 4 2 4 4 2 4 4 4 7 6 5 5 3 3 2 2 3 5 5 4 3 2 3 5 5 6 8 7 8 8 2 4 7 10 11 9 7 6 7 8 9 9 9 9 9 9 10
4 4 3 4 9 4 7 7 7 7 8 9 9 10 8 5 7 8 7 7 6 4 4 6 6 6 6 6 4 5 5 5 7 6 5 7 4 2 4 2 1 3 4 6 5 3 3 4 6 6 7 6 1 5 4 4 3 3 4 4 4 4 4 6 7 5 5 8 6 7 8 1 6 5 7 10 8 7 7 7 8 9 9 9 9 9 9 9
5 4 1 5 9 1 7 7 5 4 7 8 6 7 4 2 6 8 7 7 7 5 4 5 5 5 6 5 4 6 6 4 6 6 4 6 3 2 4 2 2 3 3 3 4 1 1 3 6 5 3 2 6 6 3 3 2 1 2 2 3 4 5 7 8 4 5 6 4 6 7 1 5 4 7 9 7 8 7 7 8 8 8 9 9 9 9 9
4 6 7 7 5 2 6 8 5 5 7 5 3 4 3 4 8 8 8 10 8 6 6 6 5 5 5 4 4 7 7 3 3 4 5 6 5 5 3 2 4 5 4 3 5 3 2 3 5 4 4 4 5 4 2 1 2 3 1 1 1 2 2 3 4 2 4 6 4 6 7 3 5 4 6 7 7 8 7 7 8 7 7 8 9 9 9 9
4 7 6 5 4 3 7 8 7 8 8 6 5 6 4 3 7 7 9 11 8 7 8 7 6 5 4 3 5 8 6 3 2 4 4 6 5 4 2 2 5 5 2 1 2 3 3 4 6 5 4 5 5 5 5 4 4 3 3 3 1 1 1 1 1 1 5 7 7 8 7 2 7 6 5 6 7 8 7 7 8 7 7 7 7 8 8 8
5 5 4 4 4 4 6 5 5 8 9 9 10 10 8 5 3 3 6 7 4 4 7 6 5 5 6 6 5 6 4 2 3 4 3 6 6 4 3 1 4 3 3 5 2 2 3 3 6 8 7 7 6 4 3 4 5 3 4 5 3 2 2 2 3 4 5 6 6 8 7 3 10 9 7 7 6 7 8 7 7 8 7 6 6 6 6 7
3 3 3 3 3 4 3 2 4 7 8 9 9 10 12 10 5 2 3 4 3 3 3 3 5 6 8 8 8 7 6 3 4 6 7 8 7 4 3 3 4 5 6 5 2 1 2 3 4 6 6 4 1 3 4 2 4 6 5 7 4 2 2 2 3 4 4 5 6 8 7 4 11 14 11 8 6 6 7 7 7 7 6 6 6 6 6 7
3 3 3 2 1 4 3 3 4 6 5 7 7 7 12 12 8 6 4 2 4 5 2 2 6 8 10 11 9 6 6 6 6 9 11 9 8 7 4 4 6 5 2 1 1 1 3 5 4 4 4 2 5 6 5 2 2 4 5 7 6 3 3 4 6 5 3 6 8 4 4 7 7 11 11 7 5 5 6 7 7 6 6 6 6 6 7 7
3 3 1 2 2 3 2 1 2 3 4 6 5 6 12 14 11 9 5 3 4 6 4 4 8 10 12 13 9 6 8 8 8 10 11 10 10 10 7 5 5 2 2 4 3 1 4 5 4 4 4 2 4 5 4 1 3 3 5 7 6 5 6 7 10 10 6 8 9 3 2 7 4 6 7 4 3 4 6 7 6 6 6 5 5 5 6 7
4 3 1 1 3 5 4 3 4 5 5 5 4 6 12 15 13 7 4 5 7 7 5 6 11 12 11 11 9 8 10 9 8 9 9 10 11 11 8 6 5 4 5 6 4 2 3 3 5 5 6 4 3 2 2 3 5 6 8 9 8 8 10 11 12 12 11 12 13 10 9 10 5 3 4 3 4 5 6 6 5 5 5 4 4 5 5 6
3 4 2 2 5 5 5 4 4 6 4 4 5 6 8 13 13 8 4 4 8 8 6 8 12 10 9 10 9 8 7 6 8 12 12 12 12 9 7 6 6 7 7 6 4 0 2 2 5 4 5 6 5 3 3 5 7 9 10 10 10 11 13 13 12 11 11 13 13 13 13 11 4 2 3 5 5 6 7 6 5 5 4 3 3 4 5 5
6 5 3 4 6 5 5 4 4 6 5 5 6 6 7 11 11 9 5 1 2 5 6 9 11 8 6 9 7 5 6 4 5 11 13 11 10 7 5 5 8 10 8 6 5 3 2 3 5 4 5 5 6 4 5 5 6 10 11 11 13 13 12 11 10 10 11 12 10 10 10 6 4 6 6 7 7 7 8 7 6 5 4 3 2 3 4 5
7 5 3 4 5 4 5 4 5 6 5 4 4 5 5 7 8 8 6 2 0 0 1 5 10 8 7 9 8 7 8 7 6 7 8 7 6 5 4 6 9 9 7 7 5 4 5 5 5 6 5 4 6 4 3 3 7 9 9 11 15 15 13 11 10 9 10 10 8 7 4 2 7 7 7 8 8 7 7 7 6 5 4 3 2 3 4 5
Wind_Direction
344 343 340 338 335 334 331 328 324 317 301 275 238 210 201 198 196 195 193 194 193 192 195 196 197 201 203 208 217 224 235 244 242 228 230 247 239 229 239 194 186 176 157 153 163 169 169 188 190 192 212 213 233 229 162 206 252 257 280 312 23 33 22 11 360 1 336 319 315 170 197 214 160 155 157 166 183 148 163 171 140 135 83 59 96 124 132 141
345 343 341 338 336 336 334 332 328 321 312 278 224 197 193 192 191 191 189 188 188 187 189 191 193 195 198 207 213 222 243 246 246 249 249 255 252 233 224 196 184 185 184 184 184 186 189 192 183 194 221 227 203 173 174 176 233 262 305 317 39 26 5 359 347 347 321 313 309 240 201 219 180 150 169 185 172 159 173 172 171 167 134 118 130 133 136 147
346 344 343 340 338 339 337 338 336 333 342 280 203 181 184 185 185 186 182 181 181 179 181 186 188 189 194 201 206 218 250 257 255 259 255 246 237 227 219 211 205 200 197 197 198 202 211 212 190 205 243 248 183 206 225 174 211 272 309 312 42 11 349 5 349 339 317 305 289 250 194 207 178 145 181 200 172 174 189 176 177 180 157 149 147 144 146 155
347 346 347 343 341 345 344 346 347 353 61 129 178 171 176 178 179 179 175 176 175 170 173 178 181 186 188 191 197 201 261 261 249 198 167 188 205 212 213 213 213 204 196 201 206 207 219 216 200 226 259 257 196 245 258 158 217 305 299 321 9 347 339 1 353 348 323 300 276 245 191 196 181 161 188 208 195 184 196 182 181 182 161 157 156 155 158 163
349 349 351 348 345 351 351 354 360 16 92 122 162 165 169 171 172 172 172 173 168 165 169 174 178 181 181 182 184 188 256 245 138 107 155 173 176 195 201 203 199 185 180 190 189 191 203 205 209 231 250 263 249 239 263 115 289 292 274 322 337 325 332 345 346 351 325 300 254 223 199 186 171 183 199 216 221 170 184 182 179 176 161 160 161 160 163 169
351 352 354 352 350 354 359 3 12 35 96 125 152 159 163 166 166 169 172 169 165 169 172 174 178 180 178 173 164 192 249 250 80 110 179 207 213 190 188 188 184 174 175 183 175 183 194 200 216 229 241 258 266 271 335 17 279 287 276 323 319 320 322 326 339 341 313 285 236 208 199 177 178 199 204 222 239 56 62 189 175 156 157 160 161 163 168 174
353 353 353 356 355 355 3 9 21 47 97 127 147 156 160 162 165 171 171 168 168 174 179 179 181 182 168 157 157 211 245 274 42 233 260 262 233 196 181 175 175 173 177 185 181 190 194 202 218 234 251 249 262 269 318 302 261 272 290 323 322 320 311 317 334 328 301 269 240 184 187 191 202 210 191 220 235 84 64 173 161 140 151 161 163 168 173 176
354 352 353 358 360 359 6 16 35 65 108 132 147 153 158 162 166 170 170 170 173 178 182 181 182 177 156 161 208 230 232 265 19 296 286 255 207 178 169 166 172 174 180 190 188 197 201 213 221 230 246 247 279 263 306 290 249 259 299 323 323 313 311 322 330 324 299 259 213 174 200 206 211 215 200 227 229 159 106 125 145 145 153 164 168 172 176 177
354 352 353 357 2 4 10 27 52 78 111 138 151 153 157 161 165 168 170 172 175 181 182 182 182 172 161 185 252 242 186 75 22 326 281 194 170 161 159 162 174 177 183 192 194 203 206 219 223 230 256 267 276 262 288 278 254 327 316 317 317 310 318 327 328 334 295 241 188 192 206 199 188 197 237 238 221 167 144 141 149 155 161 169 172 175 179 178
355 352 352 356 3 8 14 38 72 84 108 141 154 158 161 164 167 167 170 174 178 181 180 181 175 166 177 219 248 227 110 76 35 23 108 159 151 155 161 168 173 180 187 187 196 206 212 230 224 231 267 266 239 250 261 276 321 344 314 312 307 304 318 324 336 6 246 205 204 219 196 173 173 202 238 231 187 167 163 162 159 165 170 173 174 175 181 181
357 353 352 354 0 9 21 54 92 99 106 125 148 162 166 169 173 170 170 175 179 182 180 178 169 170 202 242 241 202 99 97 33 23 101 153 150 157 169 173 173 183 185 185 199 204 218 235 205 211 244 214 210 228 227 270 316 317 309 305 293 292 306 321 358 32 247 155 202 241 202 186 186 219 238 175 148 171 176 170 168 177 177 175 177 175 181 183
358 355 353 353 358 12 29 69 108 115 107 117 141 158 166 171 175 175 173 173 180 184 179 173 168 170 229 248 242 255 105 147 2 5 128 151 157 167 173 173 178 188 186 194 204 203 217 205 196 217 222 171 212 222 199 251 289 292 297 294 291 272 225 349 19 32 311 96 159 232 223 209 201 224 232 165 152 170 175 175 175 184 181 178 179 177 181 183
1 357 353 351 357 16 39 80 116 120 115 123 133 149 162 166 169 173 171 172 178 182 178 169 164 173 255 249 223 245 246 246 294 318 158 161 167 169 170 174 182 194 194 201 197 194 200 181 202 226 253 248 241 347 270 247 267 274 265 275 292 250 177 61 42 53 291 98 161 230 244 204 194 219 208 164 175 178 179 187 183 185 183 182 181 181 185 182
4 358 353 351 357 20 55 89 107 105 122 131 136 146 151 153 159 164 165 167 171 177 174 164 162 182 256 261 211 245 253 259 253 206 168 170 163 150 167 175 179 184 180 172 152 176 191 186 223 235 233 255 285 340 258 235 238 265 260 247 268 248 130 73 48 22 202 133 180 236 257 216 164 204 174 165 188 192 202 202 188 187 183 185 185 186 188 185
5 0 353 349 355 21 74 102 107 100 114 133 138 139 143 147 146 147 151 156 164 165 159 159 172 204 258 250 226 255 258 231 215 196 178 174 165 154 164 170 168 166 163 150 136 152 183 189 217 222 192 222 264 258 246 234 219 243 263 234 214 247 113 102 78 13 15 123 189 229 252 230 115 60 144 173 199 205 220 214 197 194 187 189 189 190 193 188
8 2 354 346 348 15 97 116 121 112 113 135 140 136 139 138 134 137 138 142 150 148 146 162 190 227 277 246 164 236 229 197 199 186 179 182 179 157 152 158 154 156 156 140 143 145 170 189 211 244 205 193 231 240 241 238 217 209 248 257 205 252 184 132 144 105 356 44 193 222 265 273 125 93 135 184 213 216 228 225 209 202 194 194 190 190 197 191
9 3 357 345 336 324 136 134 132 126 124 131 129 127 127 125 126 124 122 129 132 136 154 215 189 225 271 274 180 218 188 166 167 166 174 186 182 150 147 154 150 152 149 136 152 156 168 191 193 221 224 219 230 238 239 236 221 192 216 246 214 244 263 167 153 156 276 294 208 215 248 281 291 157 170 181 209 222 233 237 223 212 202 197 193 192 197 196
9 5 359 346 327 265 172 150 143 132 124 123 119 115 112 113 115 111 117 125 121 134 202 253 198 231 237 210 207 160 129 133 151 156 164 169 165 156 154 156 149 151 153 149 169 177 180 193 198 208 208 213 222 224 234 245 266 206 201 241 212 212 232 219 147 142 256 266 237 215 227 260 279 248 197 176 202 236 241 246 239 225 210 198 197 198 198 199
9 5 1 351 328 236 180 160 154 140 131 128 120 111 106 108 111 119 142 149 157 183 218 178 193 253 119 184 179 105 100 131 143 151 160 158 158 162 157 153 156 163 172 170 176 184 193 189 199 222 210 204 211 225 259 339 352 295 263 268 269 236 219 211 43 65 300 264 242 236 243 266 283 301 42 113 220 272 267 256 249 236 221 210 208 207 203 203
8 5 2 356 328 219 181 170 159 145 142 134 125 122 122 129 153 161 172 201 222 247 296 178 199 251 5 142 148 119 135 154 159 162 164 161 157 159 155 156 168 188 199 184 166 173 203 207 204 221 215 200 197 220 285 328 295 268 257 246 253 250 221 153 105 82 300 261 224 266 288 292 289 355 39 34 14 340 336 318 285 270 246 234 232 225 216 207
9 6 3 2 341 210 180 171 160 154 153 143 141 181 181 7 298 142 180 221 223 238 262 238 224 254 267 141 137 132 157 175 174 161 163 168 168 167 162 170 187 197 196 185 151 153 202 225 220 222 212 173 181 210 248 254 242 247 249 245 241 236 200 109 101 97 262 259 186 97 288 267 271 40 44 33 31 29 16 11 352 336 318 259 229 207 200 184
10 7 5 10 7 198 174 168 163 163 163 158 203 258 9 22 345 338 298 253 228 226 243 240 237 253 252 247 232 234 275 207 163 154 165 177 186 188 169 182 211 192 169 182 171 171 207 229 224 202 168 162 195 218 224 237 246 239 238 245 241 220 172 117 119 129 194 262 192 117 280 260 95 63 52 44 44 43 35 32 24 8 353 302 203 168 181 180
10 9 6 16 32 133 171 172 166 167 175 185 243 259 30 2 338 312 262 279 263 215 223 226 225 235 234 238 221 208 242 227 180 164 172 184 194 201 182 189 217 194 172 197 205 205 208 221 212 175 172 196 195 202 223 236 236 232 233 237 228 199 193 167 146 157 205 272 296 288 271 247 113 85 68 59 56 55 55 54 49 40 28 360 349 212 212 209
9 10 7 15 44 96 158 168 166 176 189 215 258 264 352 338 332 300 252 277 273 205 207 215 220 231 224 213 188 197 219 230 206 167 170 189 186 185 203 200 208 208 200 208 216 234 230 94 106 158 176 205 205 197 217 235 219 212 223 241 243 209 217 196 144 180 210 212 241 260 247 223 111 84 73 68 66 60 57 59 57 53 49 48 45 38 311 263
6 9 8 14 60 101 142 164 176 197 204 230 255 246 290 322 325 286 260 273 247 187 177 188 206 222 200 159 170 193 213 221 221 169 168 194 186 169 201 201 211 218 203 203 216 242 243 119 135 190 180 206 224 210 214 236 232 207 203 226 260 253 215 194 172 205 225 196 169 262 257 197 108 77 70 71 70 63 55 54 54 52 52 54 55 53 49 42
1 4 7 12 95 118 139 169 185 205 213 225 238 227 281 312 315 241 249 276 234 163 154 176 185 179 172 173 172 183 209 204 203 163 167 192 194 182 201 179 213 237 193 191 218 246 232 154 196 231 215 213 231 235 218 231 249 220 162 179 238 243 205 194 196 223 247 214 131 249 275 217 128 82 74 78 73 66 57 51 50 50 51 51 52 53 53 53
356 358 1 356 175 163 160 60 172 195 215 214 215 265 294 307 285 208 235 265 232 155 144 164 176 168 168 170 168 180 197 149 137 158 173 191 188 195 224 183 191 231 176 189 220 220 202 191 202 220 225 222 227 229 198 215 246 217 93 106 231 217 204 195 207 232 252 255 162 208 258 257 196 94 83 90 78 63 54 48 47 48 50 52 52 52 53 52
352 352 353 348 277 205 212 301 248 222 265 326 265 277 300 295 203 195 248 258 209 131 146 137 123 165 164 164 178 195 133 131 158 164 169 191 188 199 227 206 203 192 175 205 204 136 178 199 194 200 217 218 218 221 171 216 241 76 69 323 274 236 217 203 218 236 237 251 235 202 201 254 223 118 97 92 78 60 53 48 45 46 47 49 50 51 53 54
349 348 346 344 309 223 221 243 260 253 300 306 280 276 281 215 194 210 262 256 175 149 149 132 141 172 165 165 191 206 169 151 192 141 152 181 196 234 240 225 224 186 177 221 234 111 123 176 179 202 221 226 248 360 227 234 241 70 77 195 178 203 210 211 233 238 207 235 257 216 188 246 236 130 116 92 73 54 54 50 46 47 46 45 45 46 49 51
344 344 342 339 319 219 221 233 239 252 304 300 275 241 203 194 209 224 223 225 186 144 132 158 164 174 173 171 189 201 196 158 106 136 159 173 188 218 267 256 234 210 189 224 251 221 122 102 25 245 257 297 317 317 245 248 238 109 206 207 187 191 195 214 238 250 229 231 252 231 192 238 250 118 90 82 70 46 54 55 45 45 45 42 42 42 43 44
339 340 337 328 291 203 206 224 219 245 298 296 212 187 200 198 233 232 194 198 239 152 153 178 164 168 186 189 189 189 198 177 132 158 169 165 184 195 193 189 205 218 208 214 234 228 202 201 193 194 239 281 252 217 192 218 210 210 230 225 212 204 205 223 218 224 241 244 247 204 169 223 247 109 91 93 83 60 55 54 44 40 39 40 42 43 41 40
335 335 330 319 280 213 209 218 205 273 298 249 183 194 205 203 225 233 197 145 210 182 174 177 169 181 194 201 198 182 192 189 167 181 182 175 187 190 198 205 191 204 214 208 205 202 207 205 156 147 165 244 240 210 171 179 197 213 223 223 227 227 223 234 229 219 238 248 184 149 177 217 224 96 106 102 88 72 59 51 43 39 39 42 47 47 44 42
333 332 326 312 279 219 212 225 278 300 299 180 199 211 214 220 218 225 218 188 148 137 156 145 164 187 195 201 196 176 186 184 175 193 194 190 196 187 198 223 230 232 227 207 200 193 183 167 169 176 168 198 244 233 199 180 189 208 219 226 235 237 231 235 236 229 242 237 142 140 194 202 129 113 115 102 89 79 69 60 52 50 48 49 51 49 46 44
331 329 323 308 282 226 206 228 274 277 198 194 214 212 216 229 221 225 227 203 119 108 165 155 163 180 197 204 180 171 193 180 172 188 187 195 208 196 193 201 221 244 242 214 216 213 204 180 173 176 148 175 238 292 322 271 208 215 236 247 244 242 242 247 249 246 253 243 147 152 201 204 158 135 118 107 98 85 79 76 68 62 57 52 49 45 42 40
331 328 320 306 275 218 202 254 281 204 198 214 226 215 213 224 219 221 228 202 162 172 169 172 190 187 193 198 167 177 224 189 174 191 193 201 212 200 190 181 194 222 230 218 207 216 230 205 116 94 49 57 225 357 333 286 239 200 229 247 248 254 249 249 286 293 282 264 204 183 183 75 110 122 116 117 108 98 91 82 72 61 53 47 43 38 34 34
334 331 318 290 234 198 214 285 260 194 207 224 228 223 216 227 229 220 224 198 194 189 173 180 204 204 193 186 176 184 224 200 178 186 189 195 199 181 169 139 173 209 226 227 199 203 236 192 120 122 108 78 15 5 331 286 261 190 223 234 214 357 272 235 238 51 276 258 228 191 157 104 121 136 132 135 116 106 100 81 68 55 50 46 40 35 30 32
335 332 309 239 197 202 258 285 219 195 216 229 231 232 226 232 238 231 187 131 243 216 198 195 203 216 204 193 184 183 183 174 183 193 186 175 164 151 162 134 145 222 246 261 229 207 243 191 144 162 149 106 15 311 99 352 296 248 232 186 107 50 255 243 250 200 225 250 227 213 213 170 168 167 149 152 131 108 100 81 67 52 46 44 41 36 32 32
326 315 285 234 207 244 272 253 195 197 220 232 232 235 237 234 226 219 196 183 234 225 220 220 204 215 221 207 187 176 178 182 187 193 187 182 176 151 169 156 135 229 263 256 236 201 240 216 158 165 164 129 168 233 169 113 4 320 218 145 162 241 222 218 248 235 235 250 245 241 238 215 207 177 155 160 141 116 104 82 68 54 47 43 39 36 33 32
303 284 262 180 174 304 264 200 189 208 224 227 228 228 235 234 219 204 192 204 234 223 222 230 216 211 233 221 189 168 185 202 189 184 192 193 181 164 187 179 146 142 214 223 222 185 219 233 190 172 176 154 182 223 217 169 132 90 159 171 217 269 252 231 243 252 254 257 260 258 246 234 212 148 148 145 124 114 100 82 71 59 56 51 44 42 38 35
281 289 220 127 13 336 196 178 196 217 221 224 231 228 224 229 215 190 189 210 225 227 229 229 214 206 211 215 204 167 188 211 192 190 201 180 159 161 185 208 167 131 136 201 213 191 194 231 217 168 164 193 199 215 263 246 188 199 212 213 207 217 248 248 238 242 257 261 261 263 256 227 91 111 133 126 111 104 90 84 79 67 65 61 54 51 47 43
272 280 173 84 359 354 164 192 211 214 225 224 233 235 226 231 215 186 182 209 224 240 253 241 224 212 200 198 198 169 175 199 190 188 184 170 177 187 162 178 218 158 165 185 186 193 197 213 219 190 184 206 150 52 13 344 341 276 247 235 222 221 228 242 241 226 239 259 261 265 267 193 109 113 118 115 107 97 88 86 86 77 72 70 64 60 56 52
252 262 251 354 342 227 186 226 213 204 235 225 232 239 215 207 222 199 176 195 219 223 226 235 225 207 200 195 182 170 168 177 185 184 181 175 170 77 116 150 250 221 212 175 136 106 300 222 212 201 180 133 77 65 37 8 5 327 315 272 239 242 245 252 257 240 225 248 267 269 268 141 114 122 117 114 100 90 86 86 92 87 76 73 69 66 63 57
253 295 302 312 319 211 216 235 210 208 231 223 239 232 185 197 216 202 182 191 206 209 203 208 201 199 207 190 168 173 166 156 179 172 163 156 118 65 83 174 216 212 215 175 129 137 247 221 197 170 118 103 100 108 108 62 237 207 113 29 242 233 277 290 298 302 254 245 243 253 250 165 126 118 114 120 109 98 91 85 93 93 82 76 69 67 64 57
294 291 283 282 294 240 228 231 221 221 219 209 217 207 189 221 218 205 200 198 198 206 203 196 191 195 193 173 174 176 170 170 177 160 155 150 126 74 70 182 212 205 196 144 135 172 207 207 203 195 171 160 165 179 179 185 219 209 128 107 112 124 114 321 289 265 260 250 237 251 264 173 140 144 130 133 124 107 99 92 91 90 85 81 72 67 63 57
290 263 235 240 249 232 232 242 250 242 222 208 214 208 194 197 209 231 223 199 188 221 207 186 181 176 158 155 161 163 176 201 171 169 166 140 129 106 81 133 208 178 72 33 24 202 204 202 212 219 219 214 207 205 200 183 178 172 150 147 136 130 167 242 255 223 237 241 228 249 273 120 139 163 157 139 134 115 109 108 99 93 89 84 75 65 58 53
306 273 253 227 200 214 239 262 258 256 235 210 210 209 203 196 171 166 229 198 172 211 207 160 166 169 162 164 160 159 178 187 160 169 169 148 136 123 86 88 109 99 71 41 15 226 188 192 224 246 260 261 158 84 52 72 159 165 173 177 171 170 198 250 262 244 254 258 243 249 257 179 161 176 173 146 134 126 121 119 108 98 89 80 76 67 59 54
280 269 275 288 237 223 209 188 224 245 238 216 205 197 204 201 172 164 206 220 178 183 180 157 182 183 178 176 169 160 173 172 162 166 165 152 133 120 114 110 99 78 42 71 128 203 189 187 207 250 281 10 71 89 79 62 193 181 183 194 196 199 209 228 242 250 283 272 263 261 245 240 205 175 168 145 124 127 126 123 112 101 93 83 76 70 64 57
250 271 347 360 287 248 217 209 275 261 229 222 217 196 203 200 182 175 187 185 181 192 196 193 197 198 190 184 177 158 163 167 162 162 161 152 141 138 138 127 111 114 206 167 143 252 222 186 178 208 216 122 91 107 112 146 229 228 227 228 223 214 216 227 241 250 256 253 264 300 240 253 248 150 152 132 111 123 116 114 111 102 96 86 77 67 57 49
252 270 323 194 251 281 296 326 319 280 234 217 216 206 207 202 189 176 169 169 182 197 211 199 193 195 191 189 189 174 168 168 162 164 166 160 158 159 154 140 138 169 177 150 120 314 261 163 156 191 196 176 161 153 160 229 246 246 244 243 241 237 235 236 244 252 254 253 260 271 264 258 253 173 155 118 108 118 116 118 119 107 95 85 76 64 49 39
293 300 335 247 253 269 273 271 275 263 232 207 214 207 209 208 194 170 152 188 188 185 201 204 188 181 181 191 199 187 170 168 169 171 173 167 165 171 171 159 155 163 167 148 127 301 284 153 151 180 201 201 198 205 233 250 260 259 256 252 248 246 243 241 244 245 247 254 258 262 266 262 239 161 134 127 129 135 139 142 137 124 112 97 80 58 43 29
316 305 319 291 268 244 233 234 249 254 232 214 213 198 204 213 197 161 138 235 225 178 197 201 173 153 172 190 182 135 99 84 156 169 172 171 170 177 181 168 161 162 162 152 148 172 205 160 154 185 228 213 188 208 239 247 264 262 256 251 244 242 241 238 237 229 228 242 249 249 261 260 152 132 136 142 148 154 158 159 154 147 134 113 84 44 32 16
324 282 258 279 268 240 234 224 222 241 240 227 215 198 204 207 186 161 151 163 225 131 251 200 164 154 176 172 139 96 84 77 89 127 146 153 150 144 140 151 163 170 164 155 162 172 168 165 167 192 232 204 157 178 228 235 256 255 242 238 238 240 241 238 235 224 218 230 244 248 257 109 116 137 154 156 164 173 172 167 160 151 136 110 57 18 6 358